Regional Weather Roundup
Issued by NWS

Home | Current Version | Previous Version | Text Only | Print | Product List | Glossary Off
Versions: 1 2 3 4 5 6 7 8 9 10 11 12 13 14 15 16 17 18 19 20 21 22 23 24 25 26 27 28 29 30 31 32 33 34 35 36 37 38 39 40 41 42 43 44 45 46 47 48 49 50

000
ASUS43 KIND 030709
RWRIN

WEATHER ROUNDUP FOR INDIANA
NATIONAL WEATHER SERVICE INDIANAPOLIS IN
200 AM EST TUE MAR 03 2015

NOTE: "FAIR" INDICATES FEW OR NO CLOUDS BELOW 12,000 FEET WITH NO
SIGNIFICANT WEATHER AND/OR OBSTRUCTIONS TO VISIBILITY.

* - STATION DOES NOT REPORT WEATHER SUCH AS PRECIPITATION OR FOG.

+ - STATION NOT QUALITY CONTROLLED BY THE NATIONAL WEATHER SERVICE.
    USE DATA WITH CAUTION...ESPECIALLY DEWPOINT AND RELATIVE
    HUMIDITY OBSERVATIONS.

INZ001>003-010>013-019-020-030800-
NORTHWEST INDIANA

CITY           SKY/WX    TMP DP  RH WIND       PRES   REMARKS
GARY /AIRPORT/ CLOUDY    29  13  50 SE8       30.23F WCI  21
KNOX *+          N/A     27   5  39 E5        30.23F WCI  21
LA PORTE +     CLOUDY    27  17  65 SE5       30.24F WCI  22
MICHIGAN CITY+ CLOUDY    27  10  50 SE5       30.24F WCI  21
MONTICELLO +   CLOUDY    25  16  68 CALM      30.24F
RENSSELAER +   CLOUDY    28  21  74 SE8       30.23S WCI  20
VALPARAISO     CLOUDY    25  15  66 SE7       30.23F WCI  17

$$

LMZ046-743>745-030800-
SOUTHERN LAKE MICHIGAN

STATION/POSITION TIME  TEMP WIND        PRES
                       AIR  DIR/SP/G
                 (UTC) (F)  (DEG/KT/KT) (MB)
MICHIGAN CITY    0700   26  120/  7/  9   N/A

$$

INZ004-005-014>016-021>024-030800-
NORTH CENTRAL INDIANA

CITY           SKY/WX    TMP DP  RH WIND       PRES   REMARKS
GOSHEN         CLOUDY    25  16  68 SE7       30.25F WCI  17
LOGANSPORT +   CLOUDY    25  19  80 E7        30.26S WCI  17
PERU/GRISSOM   CLOUDY    24  17  75 SE8       30.23F WCI  15
ROCHESTER +    CLOUDY    28  19  69 SE3       30.25F
SOUTH BEND     CLOUDY    26  15  63 SE7       30.26F WCI  18
WARSAW +       CLOUDY    25  18  74 SE5       30.25F WCI  19

$$

INZ006>009-017-018-025>027-030800-
NORTHEAST INDIANA

CITY           SKY/WX    TMP DP  RH WIND       PRES   REMARKS
ANGOLA *+      CLOUDY    21  16  79 SE3       30.26F
AUBURN +       CLOUDY    25  18  74 CALM      30.28S
FORT WAYNE     CLOUDY    23  15  71 E6        30.28F WCI  16
HUNTINGTON +   CLOUDY    24  12  61 E3        30.26S

$$

INZ028-029-035-036-043>045-051>053-030800-
WEST CENTRAL INDIANA

CITY           SKY/WX    TMP DP  RH WIND       PRES   REMARKS
CRAWFORDSVL +  CLOUDY    24  13  61 SE5       30.22F WCI  18
GREENCASTLE +  CLOUDY    27  14  59 SE7       30.22F WCI  19
LAFAYETTE      CLOUDY    25  16  68 SE5       30.25S WCI  19
TERRE HAUTE    CLOUDY    28  17  63 E7        30.22F WCI  21

$$

INZ030>032-037>040-046>048-054>057-064-065-030800-
CENTRAL INDIANA

CITY           SKY/WX    TMP DP  RH WIND       PRES   REMARKS
CP ATTERBURY + CLOUDY    27  19  74 CALM      30.26S
FRANKFORT +    CLOUDY    25  18  77 E8        30.25S WCI  16
GREENWOOD *+   CLOUDY    25  14  63 SE7       30.24F WCI  17
INDIANAPOLIS   CLOUDY    26  16  65 SE10      30.21F WCI  16
-EAGLE CREEK   CLOUDY    26  16  65 SE8       30.22F WCI  18
KOKOMO *+      CLOUDY    25  16  68 SE7       30.24F WCI  17
MARION +       CLOUDY    24  15  67 SE8       30.25S WCI  15
MT COMFORT *+  CLOUDY    25  10  54 SE7       30.25S WCI  17
SHELBYVILLE    CLOUDY    27  16  63 SE7       30.25R WCI  19
ZIONSVILLE +   CLOUDY    26  15  62 SE7       30.23F WCI  18

$$

INZ033-034-041-042-049-050-058-059-030800-
EAST CENTRAL INDIANA

CITY           SKY/WX    TMP DP  RH WIND       PRES   REMARKS
MUNCIE         CLOUDY    22  15  75 E5        30.25F WCI  16

$$

INZ060-061-067>069-081>083-085>088-030800-
SOUTHWEST INDIANA

CITY           SKY/WX    TMP DP  RH WIND       PRES   REMARKS
EVANSVILLE     CLOUDY    34  21  59 E5        30.23F WCI  30
HUNTINGBURG *+ CLOUDY    32  19  59 SE5       30.22F WCI  27
WASHINGTON +   CLOUDY    29  19  66 SE6       30.20F WCI  23

$$

INZ062-063-066-070>080-084-089>092-030800-
SOUTH CENTRAL AND SOUTHEAST INDIANA

CITY           SKY/WX    TMP DP  RH WIND       PRES   REMARKS
BLOOMINGTON    MOCLDY    28  16  60 SE12      30.20F WCI  18
NORTH VERNON + MOCLDY    30  14  51 E5        30.25F WCI  25
SEYMOUR +      MOCLDY    25  19  80 CALM      30.25

$$



USA.gov is the U.S. government's official web portal to all federal, state and local government web resources and services.